Le nostre stazioni meteo in Italia

Pubblicità
Il mio iltempo24.it
Tyndrum, Gran Bretagna (99020): Temperatura & dewpoint: 14.02.2017 15:00:00 - 20.02.2017 15:00:00 (GMT)Tyndrum, Gran Bretagna (99020): precipitazioni: 14.02.2017 15:00:00 - 20.02.2017 15:00:00 (GMT)
Data & Tempo tt [°C] td [°C] rr [mm]
20.02.2017 15:00:00 9,6 5,0 0,0
20.02.2017 14:00:00 10,0 5,7 0,0
20.02.2017 13:00:00 9,8 7,0 0,0
20.02.2017 12:00:00 11,0 8,6 0,0
20.02.2017 11:00:00 10,9 8,0 0,2
20.02.2017 10:00:00 10,1 9,3 1,4
20.02.2017 09:00:00 9,9 9,0 2,8
20.02.2017 08:00:00 9,9 8,8 2,6
20.02.2017 07:00:00 10,3 9,0 0,4
20.02.2017 06:00:00 10,2 9,3 0,4
20.02.2017 05:00:00 9,8 8,7 0,4
20.02.2017 04:00:00 9,3 8,1 0,0
20.02.2017 03:00:00 9,3 7,8 0,0
20.02.2017 02:00:00 9,3 8,0 0,0
20.02.2017 01:00:00 9,2 8,4 0,0
20.02.2017 00:00:00 9,4 8,7 0,2
19.02.2017 23:00:00 9,4 8,9 0,2
19.02.2017 22:00:00 9,2 8,8 0,2
19.02.2017 21:00:00 9,1 8,7 0,6
19.02.2017 20:00:00 9,2 8,6 1,4
19.02.2017 19:00:00 9,3 8,4 0,4
19.02.2017 18:00:00 9,0 8,2 0,2
19.02.2017 17:00:00 9,5 8,1 0,0
19.02.2017 16:00:00 9,5 8,3 0,0
19.02.2017 15:00:00 9,8 8,3 0,0
19.02.2017 14:00:00 10,2 8,5 0,2
19.02.2017 13:00:00 10,5 7,5 0,0
19.02.2017 12:00:00 10,3 7,7 0,0
19.02.2017 11:00:00 9,3 7,4 0,0
19.02.2017 10:00:00 8,5 7,4 0,0
19.02.2017 09:00:00 7,8 7,1 0,0
19.02.2017 08:00:00 7,3 6,5 0,0
19.02.2017 07:00:00 7,4 6,3 0,0
19.02.2017 06:00:00 7,5 6,3 0,0
19.02.2017 05:00:00 7,5 6,1 0,0
19.02.2017 04:00:00 7,7 6,2 0,0
19.02.2017 03:00:00 7,9 6,3 0,0
19.02.2017 02:00:00 8,3 6,5 0,4
19.02.2017 01:00:00 7,9 6,9 0,6
19.02.2017 00:00:00 7,5 6,6 1,0
18.02.2017 23:00:00 7,1 6,1 0,4
18.02.2017 22:00:00 7,1 5,8 0,2
18.02.2017 21:00:00 6,8 5,9 0,4
18.02.2017 20:00:00 7,2 5,4 0,4
18.02.2017 19:00:00 7,3 5,8 1,4
18.02.2017 18:00:00 7,7 6,5 0,8
18.02.2017 17:00:00 8,4 6,2 0,2
18.02.2017 16:00:00 8,3 6,0 0,8
18.02.2017 15:00:00 9,8 4,8 0,0
18.02.2017 14:00:00 9,0 7,3 0,4
18.02.2017 13:00:00 8,7 7,7 0,6
18.02.2017 12:00:00 9,1 8,0 0,4
18.02.2017 11:00:00 9,5 7,6 0,0
18.02.2017 10:00:00 9,5 7,7 0,4
18.02.2017 09:00:00 9,6 8,3 0,2
18.02.2017 08:00:00 9,1 7,9 1,2
18.02.2017 07:00:00 8,3 7,6 1,4
18.02.2017 06:00:00 8,4 7,7 1,4
18.02.2017 05:00:00 8,3 7,6 0,4
18.02.2017 04:00:00 8,5 7,5 1,6
18.02.2017 03:00:00 8,5 7,5 0,8
18.02.2017 02:00:00 8,6 7,5 1,4
18.02.2017 01:00:00 8,2 7,2 0,2
18.02.2017 00:00:00 7,6 7,2 0,6
17.02.2017 23:00:00 7,6 7,3 0,2
17.02.2017 22:00:00 6,9 6,3 0,2
17.02.2017 21:00:00 7,4 6,8 0,2
17.02.2017 20:00:00 7,4 6,9 0,2
17.02.2017 19:00:00 7,2 6,9 0,0
17.02.2017 18:00:00 6,4 5,9 0,0
17.02.2017 17:00:00 6,7 6,2 0,0
17.02.2017 16:00:00 6,7 6,2 0,0
17.02.2017 15:00:00 6,9 6,5 0,0
17.02.2017 14:00:00 6,3 5,7 0,0
17.02.2017 13:00:00 6,1 5,4 0,0
17.02.2017 12:00:00 5,6 5,3 0,0
17.02.2017 11:00:00 5,0 4,8 0,0
17.02.2017 10:00:00 4,3 4,2 0,0
17.02.2017 09:00:00 3,6 3,5 0,0
17.02.2017 08:00:00 2,9 2,8 0,0
17.02.2017 07:00:00 2,4 2,3 0,0
17.02.2017 06:00:00 2,2 2,0 0,0
17.02.2017 05:00:00 1,8 1,4 0,0
17.02.2017 04:00:00 2,4 1,9 0,0
17.02.2017 03:00:00 4,5 4,1 0,0
17.02.2017 02:00:00 5,2 4,9 0,0
17.02.2017 01:00:00 6,0 5,8 0,2
17.02.2017 00:00:00 6,1 6,0 0,0
16.02.2017 23:00:00 6,0 5,8 0,2
16.02.2017 22:00:00 5,9 5,6 0,0
16.02.2017 21:00:00 6,2 5,8 0,0
16.02.2017 20:00:00 6,3 5,8 0,0
16.02.2017 19:00:00 7,1 6,4 0,0
16.02.2017 18:00:00 7,3 6,7 0,6
16.02.2017 17:00:00 7,7 6,8 0,8
16.02.2017 16:00:00 7,9 6,9 0,8
16.02.2017 15:00:00 8,6 7,3 0,4
16.02.2017 14:00:00 8,1 7,0 1,4
16.02.2017 13:00:00 8,1 6,6 1,2
16.02.2017 12:00:00 7,7 6,6 1,4
16.02.2017 11:00:00 7,4 6,3 1,6
16.02.2017 10:00:00 7,1 5,8 1,4
16.02.2017 09:00:00 6,4 4,2 0,8
16.02.2017 08:00:00 6,8 3,9 0,0
16.02.2017 07:00:00 6,7 4,5 0,6
16.02.2017 06:00:00 7,5 5,2 1,0
16.02.2017 05:00:00 7,8 5,5 0,8
16.02.2017 04:00:00 8,3 5,9 1,0
16.02.2017 03:00:00 7,8 5,5 2,2
16.02.2017 02:00:00 7,7 6,3 2,6
16.02.2017 01:00:00 8,0 6,6 2,4
16.02.2017 00:00:00 8,0 6,5 2,4
15.02.2017 23:00:00 7,3 6,6 0,4
15.02.2017 22:00:00 7,5 6,6 1,0
15.02.2017 21:00:00 7,3 6,5 0,0
15.02.2017 20:00:00 6,2 5,9 0,8
15.02.2017 19:00:00 6,6 6,0 0,8
15.02.2017 18:00:00 6,9 6,3 0,2
15.02.2017 17:00:00 6,7 5,8 0,6
15.02.2017 16:00:00 7,3 5,2 0,0
15.02.2017 15:00:00 7,5 4,9 0,0
15.02.2017 14:00:00 6,9 4,8 0,0
15.02.2017 13:00:00 6,6 4,7 0,0
15.02.2017 12:00:00 6,3 4,8 0,0
15.02.2017 11:00:00 5,7 4,8 0,0
15.02.2017 10:00:00 4,5 3,9 0,0
15.02.2017 09:00:00 4,0 3,4 0,0
15.02.2017 08:00:00 3,7 3,0 0,0
15.02.2017 07:00:00 3,6 2,8 0,0
15.02.2017 06:00:00 3,7 2,8 0,0
15.02.2017 05:00:00 3,7 2,9 0,0
15.02.2017 04:00:00 3,3 2,7 0,0
15.02.2017 03:00:00 3,6 2,8 0,0
15.02.2017 02:00:00 3,5 2,7 0,8
15.02.2017 01:00:00 4,2 1,9 0,0
15.02.2017 00:00:00 4,5 1,5 0,0
14.02.2017 23:00:00 5,0 1,3 0,0
14.02.2017 22:00:00 4,7 1,2 0,0
14.02.2017 21:00:00 4,7 1,2 0,0
14.02.2017 20:00:00 4,4 1,2 0,0
14.02.2017 19:00:00 4,2 1,1 0,0
14.02.2017 18:00:00 4,4 1,3 0,0
14.02.2017 17:00:00 4,7 1,5 0,0
14.02.2017 16:00:00 5,2 1,6 0,0
14.02.2017 15:00:00 6,1 1,9 0,0

tt = Temperatura
td = dewpoint
rr = precipitazioni

Stazioni seguenti

WeatherPro
AMSI
MeteoEarth